DW6723 Weather Reports


Display with metric or nautical units.
time (UTC)temp
F
wind
direction
speed
MPH
gust
MPH
rain 1hr
in
rain 24hr
in
rain mn
in
humidity
%
barometer
mb
20260905080020 65 336 4.0 9.0 0.00 0.00 0.00 81 1007.6
20260905074519 65 324 6.0 9.0 0.00 0.00 0.00 81 1007.6
20260905073105 66 319 5.0 9.0 0.00 0.00 0.00 80 1007.6
20260905071559 66 311 3.0 6.0 0.00 0.00 0.00 79 1007.6
20260905070046 66 298 1.0 4.0 0.00 0.00 0.00 78 1007.7
20260905064544 67 312 2.0 5.0 0.00 0.00 0.00 77 1007.8
20260905063043 67 304 1.0 6.0 0.00 0.00 0.00 77 1007.9
20260905061542 67 290 4.0 7.0 0.00 0.00 0.00 76 1007.9
20260905060042 67 316 4.0 8.0 0.00 0.00 0.00 76 1008.0
20260905054546 67 360 3.0 7.0 0.00 0.00 0.00 76 1008.0
20260905053055 67 304 4.0 7.0 0.00 0.00 0.00 76 1008.0
20260905051540 67 297 4.0 7.0 0.00 0.00 0.00 76 1008.1
20260905050021 68 360 3.0 5.0 0.00 0.00 0.00 76 1007.9
20260905044522 68 309 1.0 4.0 0.00 0.00 0.00 75 1007.9
20260905043026 68 304 2.0 6.0 0.00 0.00 0.00 75 1008.1
20260905041517 69 315 3.0 5.0 0.00 0.00 0.00 74 1007.9
20260905040020 69 331 3.0 8.0 0.00 0.00 0.00 72 1008.0
20260905034514 69 344 3.0 8.0 0.00 0.00 0.00 72 1008.0
20260905033012 70 290 4.0 7.0 0.00 0.00 0.00 71 1008.1
20260905031510 70 328 3.0 6.0 0.00 0.00 0.00 71 1008.1
20260905030057 70 317 3.0 6.0 0.00 0.00 0.00 70 1008.3
20260905024610 71 325 2.0 6.0 0.00 0.00 0.00 69 1008.2
20260905023105 71 274 3.0 6.0 0.00 0.00 0.00 69 1008.2
20260905021553 71 297 2.0 5.0 0.00 0.00 0.00 70 1008.5
20260905020105 71 269 0.0 5.0 0.00 0.00 0.00 69 1008.5
20260905014553 71 311 4.0 6.0 0.00 0.00 0.00 69 1008.6
20260905013050 72 300 3.0 7.0 0.00 0.00 0.00 70 1008.5
20260905011550 72 301 1.0 4.0 0.00 0.00 0.00 70 1008.6
20260905010044 72 305 1.0 5.0 0.00 0.00 0.00 68 1008.7
20260905004548 73 298 1.0 5.0 0.00 0.00 0.00 68 1008.6
20260905003046 73 342 4.0 8.0 0.00 0.00 0.00 66 1008.6
20260905001543 74 285 3.0 7.0 0.00 0.00 0.00 66 1008.4
20260905000041 74 316 4.0 7.0 0.00 0.00 0.00 65 1008.3
20260904234539 74 321 4.0 7.0 0.00 0.00 0.00 65 1008.0
20260904233028 74 340 4.0 7.0 0.00 0.00 0.00 67 1008.1
20260904231534 74 327 3.0 6.0 0.00 0.00 0.00 67 1007.8
20260904230026 75 323 2.0 3.0 0.00 0.00 0.00 70 1007.9
20260904224526 75 305 1.0 2.0 0.00 0.00 0.00 72 1007.9
20260904223027 74 332 0.0 2.0 0.00 0.00 0.00 75 1007.8
20260904221520 73 53 0.0 2.0 0.00 0.00 0.00 80 1007.7
20260904220020 74 140 1.0 2.0 0.00 0.00 0.00 79 1007.6
20260904214529 74 135 3.0 4.0 0.00 0.00 0.00 79 1007.7
20260904213006 73 172 1.0 4.0 0.00 0.00 0.00 81 1007.8
20260904211506 73 139 3.0 5.0 0.00 0.00 0.00 80 1007.8
20260904210021 73 127 1.0 5.0 0.00 0.00 0.00 81 1007.8
20260904204506 73 134 4.0 6.0 0.00 0.00 0.00 81 1007.7
20260904203002 73 119 3.0 7.0 0.00 0.00 0.00 81 1007.9
20260904201635 74 104 7.0 12.0 0.00 0.00 0.00 78 1007.9
20260904200107 74 125 3.0 7.0 0.00 0.00 0.00 78 1007.7
20260904194606 75 136 4.0 11.0 0.00 0.00 0.00 77 1007.6
20260904193044 75 134 5.0 10.0 0.00 0.00 0.00 76 1007.3
20260904191544 74 172 5.0 11.0 0.00 0.00 0.00 77 1007.4
20260904190042 76 123 7.0 17.0 0.00 0.00 0.00 72 1007.7
20260904184544 81 325 6.0 14.0 0.00 0.00 0.00 54 1007.6
20260904183040 81 351 7.0 14.0 0.00 0.00 0.00 54 1007.6
20260904181539 80 285 6.0 14.0 0.00 0.00 0.00 56 1007.6
20260904180038 80 309 4.0 15.0 0.00 0.00 0.00 59 1007.8
20260904174544 80 317 9.0 13.0 0.00 0.00 0.00 58 1007.7
20260904173024 80 323 4.0 10.0 0.00 0.00 0.00 58 1007.7
20260904171522 78 355 8.0 11.0 0.00 0.00 0.00 61 1008.0
20260904170021 79 355 6.0 8.0 0.00 0.00 0.00 62 1008.1
20260904164521 79 310 6.0 11.0 0.00 0.00 0.00 62 1008.1
20260904163028 79 284 8.0 13.0 0.00 0.00 0.00 62 1008.1
20260904161517 79 297 8.0 14.0 0.00 0.00 0.00 62 1008.3
20260904160014 78 349 8.0 13.0 0.00 0.00 0.00 67 1008.4
20260904154511 78 340 7.0 12.0 0.00 0.00 0.00 68 1008.5
20260904153059 77 340 4.0 11.0 0.00 0.00 0.00 72 1008.7
20260904151603 75 340 8.0 11.0 0.00 0.00 0.00 74 1008.8
20260904150106 75 345 8.0 13.0 0.00 0.00 0.00 77 1009.0
20260904144547 74 326 4.0 11.0 0.00 0.00 0.00 79 1009.0
20260904143045 73 355 9.0 12.0 0.00 0.00 0.00 81 1009.1
20260904141545 72 351 5.0 8.0 0.00 0.00 0.00 83 1009.2
20260904140041 71 334 4.0 7.0 0.00 0.00 0.00 87 1009.3
20260904134548 70 350 2.0 6.0 0.00 0.00 0.00 88 1009.4
20260904133041 69 342 2.0 6.0 0.00 0.00 0.00 91 1009.5
20260904131525 68 328 4.0 8.0 0.00 0.00 0.00 92 1009.6
20260904130033 67 323 2.0 5.0 0.00 0.01 0.00 95 1009.7
20260904124525 66 267 2.0 5.0 0.00 0.01 0.00 95 1009.6
20260904123025 66 321 3.0 5.0 0.00 0.01 0.00 96 1009.6
20260904121524 65 302 2.0 5.0 0.00 0.01 0.00 96 1009.7
20260904120023 65 274 1.0 5.0 0.00 0.05 0.00 97 1009.7
20260904114531 65 249 2.0 5.0 0.00 0.05 0.00 97 1009.7
20260904113022 65 281 0.0 3.0 0.00 0.05 0.00 97 1009.7
20260904111522 64 254 1.0 3.0 0.00 0.05 0.00 97 1009.4
20260904110011 64 315 1.0 3.0 0.00 0.15 0.00 97 1009.4
20260904104510 64 316 1.0 4.0 0.00 0.15 0.00 97 1009.4
20260904103009 64 326 2.0 4.0 0.00 0.15 0.00 97 1009.4
20260904101510 64 267 0.0 2.0 0.00 0.15 0.00 97 1009.3
20260904100010 64 267 0.0 2.0 0.00 0.19 0.00 97 1009.3
20260904094518 64 267 0.0 4.0 0.00 0.19 0.00 97 1009.3
20260904093008 64 216 0.0 2.0 0.00 0.19 0.00 97 1009.4
20260904091557 64 233 1.0 2.0 0.00 0.19 0.00 97 1009.3
20260904090056 64 273 0.0 2.0 0.00 0.19 0.00 97 1009.2
20260904084558 64 220 1.0 3.0 0.00 0.19 0.00 97 1009.4
20260904083057 64 227 0.0 2.0 0.00 0.19 0.00 97 1009.4
20260904081554 64 225 1.0 3.0 0.00 0.19 0.00 97 1009.6